THOR ABLESTAR DEB, 158

Orbit data source: Space-Track

THOR ABLESTAR DEB, 158 is space debris in LEO originally from a launch on Thu, 29 Jun 1961 UTC launched from the Air Force Eastern Test Range (AFETR). Debris objects in space refer to the collection of defunct objects orbiting the Earth. Examples of debris include non-operational satellites, rocket bodies, and fragments generated from explosions, collisions, or faulty payload assembly.

Loading next visibility...
Identifier
158, 1961-015AU
Orbit
LEO
Country
Flag of USUS
Related business
Manufacturer
Unknown
Mission
Spacecraft
Bus & Motor
Unknown
Mass
Unknown
Launch date (UTC)
1961-06-29 (64 years ago)
Launch vehicle
Unknown
Launch site
Air Force Eastern Test Range (AFETR)
Object type
Payload
Rocket body
Debris
Shape & HBR
Unknown shape, 0.2 m
Radar Cross Section
Medium (>0.1 m² and <1 m²)

Expand to show TLE details & history
Last TLE update: 8 hours ago

TLE from 8 hours ago
0 THOR ABLESTAR DEB
1 00158U 61015AU  25348.88091349  .00000217  00000-0  69038-3 0  9990
2 00158  67.0724 213.0253 0609119 355.6235   3.9592 12.66121090982019
Epoch: 2025-12-14T21:08Z
TLE epoch observation values (Epoch: 2025-12-14T21:08:30.925Z)
Latitude
0.00006°
Longitude
172.10899°
Altitude
927.35 km
Speed
7.609 km/s
True Right ascension
14h 12m 06s
True Declination
0° 00' 00"
Sunlit
Object was in daylight at epoch
Visualization orbit readout
Latitude
Unknown
Longitude
Unknown
Altitude
Unknown
Speed
Unknown
Apparent Right ascension
Unknown
Apparent Declination
Unknown
Sunlit
N/A
Visualization observer readout
Local Sidereal Time
03:44:12
Azimuth
Unknown
Elevation
Unknown
Doppler factor
Unknown
Orbital elements
Apogee altitude
1,869.787 km
Perigee altitude
922.683 km
Semi-major axis
7,774.372 km
Eccentricity
0.06091
Inclination
67.0724°
RAAN
213.0253°
Arg. of periapsis
355.6235°
True anomaly
4.48061°
Mean anomaly
3.9592°
Eccentric anomaly
4.21576°
Mean motion
3.16625 °/min
Orbital period
113.7 mins
BSTAR
0.00069038

Documentation

Showing up to 5 results
|